www.pogodaiklimat.ru

Погода и климат >> Архив погоды >> Россия >> Якутия >> Усть-Нера


ПОГОДА в Усть-Нере

  • Прогноз погоды в Усть-Нере
  • Монитор погоды в Усть-Нере

АРХИВ ПОГОДЫ в Усть-Нере

Время (UTC), дата Ветер
(напр.,м/с)
 
Видим.   Явления Облачность Т
(С)
Тd
(С)
f
(%)
Тe
(С)
Тes
(С)
Комфортность P
(гПа)
Po
(гПа)
Тmin
(С)
Tmax
(С)
R
(мм)
R24
(мм)
S
(см)
21 11.06 ЮЗ 3 50 км 6/3 1500 м
[Cu med, cong Ac trans]
+11.0 +4.6 65 +9 +11 1009.6 948.9 +6.1
00 12.06 З 5
{10}
50 км 3/3 1500 м
[Cu med, cong]
+18.1 +6.2 46 +18 +21 1007.0 948.0
03 12.06 З 5 50 км 6/6 1500 м
[Cb cap]
+21.7 +4.0 31 +22 +24 комфорт 1004.2 945.9
06 12.06 З 7
{11}
50 км 8/5 1500 м
[Cb cap Ac trans]
+20.2 +4.6 36 +20 +21 1004.3 945.8
09 12.06 З 4 50 км 4/1 1500 м
[Cu hum Ci fib]
+19.2 +5.9 42 +20 +21 1004.5 945.8 +22.6
12 12.06 ЮЗ 1 50 км 3/0
[Ci fib]
+12.4 +5.6 63 +13 +13 1006.7 946.5
15 12.06 ЮЗ 2 50 км 3/0
[Ci fib]
+5.0 +3.8 92 +2 +2 1009.2 947.3
18 12.06 З 1 50 км 1/1 1500 м
[Sc]
+5.3 +3.7 89 +4 +4 1010.2 948.5
21 12.06 штиль 0 50 км 8/3 1500 м
[Cu hum Ac trans]
+10.7 +6.0 73 +10 +12 1009.5 948.8 +5.0
00 13.06 ЮЗ 4 50 км 3/3 1500 м
[Cu hum]
+18.7 +6.5 45 +19 +24 1006.4 947.7
03 13.06 ЮВ 1 50 км 4/4 1500 м
[Cu med, cong]
+22.3 +5.6 34 +23 +32 комфорт 1004.5 946.2
06 13.06 З 1 50 км 5/5 1500 м
[Cb cap]
+24.0 +3.6 26 +23 +28 комфорт 1002.6 944.8
09 13.06 СЗ 5 50 км в посл. час ливневой дождь 8/8 1500 м
[Cb cap]
+15.9 +10.6 71 +15 +15 1006.2 946.8 +24.8 0.3
12 13.06 З 5 50 км {ливн. осадки} 6/3 1500 м
[Cb cap Ac trans]
+12.5 +8.7 78 +10 +10 1008.3 948.1
15 13.06 ЮЗ 5 50 км 8/0
[Ac trans]
+10.6 +8.4 86 +8 +8 1009.4 948.7
18 13.06 ЮЗ 4 50 км 9/3 1500 м
[Sc Ac trans]
+10.4 +7.7 83 +8 +8 1010.0 949.2
21 13.06 З 5 50 км 10/5 1500 м
[Cb cap Ac trans Ci fib]
+11.7 -6.7 27 +10 +10 1010.5 949.9 -8.9
00 14.06 ЮЗ 5 50 км 10/5 1500 м
[Cb cap Ac und]
+14.8 +7.6 62 +13 +14 1010.3 950.4
03 14.06 З 6 50 км 10/5 1500 м
[Cb cap Ac trans Ci fib]
+19.8 +9.0 50 +21 +22 комфорт 1008.3 949.5
06 14.06 З 1 50 км гроза без осадков 10/6 1500 м
[Cb cap Ci fib]
+22.0 +8.2 41 +23 +26 комфорт 1006.4 948.2
09 14.06 З 2
{13}
20 км гроза, ливневой дождь 10/10 1500 м
[Cb cap]
+10.4 +9.0 91 +9 +9 1011.9 951.0 +22.9 7
12 14.06 СВ 2 50 км {гроза, ливн. осадки} 10/5 1500 м
[Sc Ac trans Ci fib]
+11.3 +10.7 96 +10 +10 1012.4 951.6
15 14.06 СВ 1 50 км 8/3 1500 м
[Sc Ci fib]
+7.4 +7.0 97 +6 +6 1013.4 951.7
18 14.06 штиль 0 50 км 6/3 1500 м
[Sc Ci fib]
+8.1 +7.5 96 +7 +7 1014.4 952.8
21 14.06 штиль 0 500 м туман 8/3 1500 м
[Sc Ci fib]
+8.7 +8.1 96 +8 +11 1014.8 953.4 +7.3 0.0
00 15.06 ЮЗ 2 50 км {туман} 10/5 1000 м
[Cb cap Ac trans Ci fib]
+13.8 +10.6 81 +13 +16 1013.6 953.3
03 15.06 Ю 1 50 км {ливн. осадки} 8/5 1500 м
[Cb cap Ci fib]
+19.9 +7.7 45 +22 +28 комфорт 1010.6 951.6
06 15.06 ЮЗ 3 50 км в посл. час гроза {ливн. осадки} 10/8 1500 м
[Cb cap Ci fib]
+16.6 +7.9 56 +16 +18 1011.3 951.7
09 15.06 С 2
{10}
50 км в посл. час ливневой дождь 9/4 1500 м
[Cb cap Ci fib]
+11.9 +10.2 89 +11 +12 1013.4 952.7 +20.1 3
12 15.06 С 2 50 км {ливн. осадки} 10/5 1500 м
[Cb cap Ac trans Ci fib]
+12.3 +8.5 78 +11 +11 1014.3 953.6
15 15.06 СВ 1 50 км 3/3 1500 м
[Sc]
+7.2 +6.8 97 +6 +6 1015.9 954.0
18 15.06 штиль 0 50 км ясно +3.5 +3.3 99 +2 +3 1018.0 955.2
21 15.06 В 1 50 км 1/0
[Ac trans]
+10.7 +7.4 80 +10 +15 1016.8 955.6 +2.7
00 16.06 штиль 0 50 км 3/1 1500 м
[Cu hum Ac trans]
+17.1 +7.4 53 +17 +28 1014.7 954.9
03 16.06 ЮЗ 2 50 км 4/4 1500 м
[Cu med, cong]
+19.6 +3.9 35 +21 +28 комфорт 1012.1 952.9
06 16.06 З 2 50 км 4/4 1500 м
[Cu med, cong]
+22.5 +2.5 27 +22 +27 комфорт 1009.7 951.3
09 16.06 СВ 1 50 км 3/3 1500 м
[Cu med, cong]
+23.7 +2.0 24 +23 +25 комфорт 1008.1 949.9 +24.4
12 16.06 СВ 7
{10}
50 км 8/8 1500 м
[Cb cap]
+16.7 +4.4 44 +16 +16 1010.0 950.4
15 16.06 С 1 50 км 8/5 1500 м
[Cb calv Ac trans]
+7.2 +4.8 85
18 16.06 штиль 0 50 км 3/3 1500 м
[Sc]
+5.1 +3.9 92 +4 +4 1012.1 950.0
21 16.06 В 2 50 км 1/0
[Ac trans]
+12.0 +4.5 60 +11 +15 1009.9 949.4 +4.4
00 17.06 СВ 3 50 км 9/8 1500 м
[Cb cap Ac trans]
+17.6 +8.0 53 +18 +19 1007.8 948.6
03 17.06 В 3 50 км 9/8 1500 м
[Cb cap Ci fib]
+20.3 +5.0 37 +21 +23 комфорт 1005.7 947.1
06 17.06 СЗ 2
{14}
50 км в посл. час ливневой дождь {гроза} 8/5 1500 м
[Cb cap Ci fib]
+15.9 +12.1 78 +16 +19 1007.6 947.8
09 17.06 В 2
{14}
20 км слаб. ливневой дождь 10/9 1500 м
[Cb cap Ci fib]
+14.2 +9.1 71 +14 +14 1008.6 948.6 +23.0 2
12 17.06 В 3 50 км {ливн. осадки} 8/5 1500 м
[Cb cap Ci fib]
+14.7 +6.5 58 +14 +14 1009.2 949.4
15 17.06 СВ 2 50 км 6/4 1500 м
[Cb cap Ac trans]
+11.1 +7.4 78 +10 +10 1010.7 950.0
18 17.06 штиль 0 50 км 3/0
[Ci fib]
+6.2 +5.5 95 +5 +6 1012.8 950.9
21 17.06 СВ 3 50 км 4/1 1500 м
[Cu hum Ci fib]
+12.6 +6.5 66 +11 +14 1011.5 951.0 +5.4 0.0
00 18.06 СВ 3 50 км 9/5 1500 м
[Cb cap Ac trans]
+16.7 +6.6 51 +17 +19 1009.8 950.3
03 18.06 В 3 50 км в посл. час ливневой дождь 10/6 1500 м
[Cb cap Ac trans Ci fib]
+17.5 +6.6 49 +18 +20 1009.3 949.9
06 18.06 СВ 4 50 км {ливн. осадки} 10/5 1500 м
[Cb cap Ac und]
+18.2 +5.8 44 +18 +19 1009.4 950.1
09 18.06 СВ 5
{10}
50 км 10/4 1500 м
[Cb cap Ac trans Ci fib]
+17.3 +3.9 41 +17 +17 1009.7 950.2 +19.4 0.0
12 18.06 СВ 3 50 км 10/4 1500 м
[Sc Ac trans Ci fib]
+15.1 +5.2 52 +15 +15 1011.0 951.0
15 18.06 СВ 4 50 км 10/5 1500 м
[Sc Ci fib]
+12.9 +5.9 62 +11 +11 1012.1 951.6
18 18.06 СВ 3 50 км 10/5 1500 м
[Sc Ci fib]
+11.0 +6.1 72 +9 +9 1013.0 952.1

 

Местоположение метеостанции Усть-Нера (Якутия, Россия): широта 64.53 долгота 143.10 высота над уровнем моря 519 м.

В архиве по умолчанию представлена погода в Усть-Нере за последнюю неделю. Архивные данные за месяц целиком и за предыдущие месяцы, начиная с января 2011 года, Вы можете получить, выбрав интересующий диапазон дат из раскрывающегося списка и нажав кнопку "Ввод!".


*Определитесь, кто Вы:
робот инопланетянин человек

Внимание! Время в таблицах - всемирное. Для получения местного времени необходимо прибавить поправку, которая равна 10 ч.

Смотрите также архив погоды в соседних городах и на ближайших метеорологических станциях:

Погода в Юртах (Якутия, Россия) (82 км)
Погода в Оймяконе (Якутия, Россия) (142 км)
Погода в Делянкире (Якутия, Россия) (144 км)
Погода в Агаякане (Якутия, Россия) (150 км)
Погода в Усть-Моме (Якутия, Россия) (214 км)
Погода в Восточной (Якутия, Россия) (224 км)
Погода в Сусумане (Магаданская область, Россия) (314 км)
Погода в Иэме (Якутия, Россия) (355 км)
Погода в Томпо (Якутия, Россия) (359 км)
Погода в Теплом Ключе (Якутия, Россия) (367 км)

Пояснения к столбцам:

Ветер - указаны скорость ветра в м/с - средняя за 10 мин, порывы в срок и между сроками (в фигурных скобках) и направление, откуда дует ветер: С - северный, СВ - северо-восточный, В - восточный, ЮВ - юго-восточный, Ю - южный, ЮЗ - юго-западный, З - западный, СЗ - северо-западный.
Видимость - горизонтальная дальность видимости в метрах или километрах. При видимости от 1 до 10 км при отсутствии осадков обычно наблюдается дымка, при ухудшении видимости до 1 км и менее - туман. В сухую погоду видимость может ухудшаться дымом, пылью или мглою.
Явления - указаны атмосферные явления, наблюдавшиеся в срок или в последний час перед сроком; фигурными скобками обозначены явления, наблюдавшиеся между сроками (за 1-3 часа до срока); квадратными скобками обозначены град или гололедные отложения с указанием их диаметра в мм.
Облачность - указаны через наклонную черту общая и нижняя облачность в баллах и высота нижней границы облаков в метрах; квадратными скобками обозначены формы облаков: Ci - перистые, Cs - перисто-слоистые, Cc - перисто-кучевые, Ac - высококучевые, As - высокослоистые, Sc - слоисто-кучевые, Ns - слоисто-дождевые, Cu - кучевые, Cb - кучево-дождевые. Подробнее классификацию облаков см. в Атласе облаков (PDF).
T - Температура воздуха - температура, измеренная на высоте 2 м над землей.
Td - Температура точки росы - температура, при понижении до которой содержащийся в воздухе водяной пар достигнет насыщения.
f - Относительная влажность воздуха - влажноcть воздуха, измеренная на высоте 2 м над землей.
Te - Эффективная температура - температура, которую ощущает одетый по сезону человек в тени. Характеристика душности погоды. При расчете учитывается влияние влажности воздуха и скорости ветра на теплоощущения человека.
Tes - Эффективная температура на солнце - температура, которую ощущает человек, с поправкой на солнечный нагрев. Характеристика знойности погоды. Зависит от высоты солнца над горизонтом, облачности и скорости ветра. Ночью, в пасмурную погоду, а также при ветре 12 м/с и более поправка равна нулю.
P - Атмосферное давление - приведенное к уровню моря атмосферное давление.
Po - Атмосферное давление - измеренное на уровне метеостанции атмосферное давление.
Tmin - Минимальная температура - минимум температуры воздуха на высоте 2 м над землей.
Tmax - Максимальная температура - максимум температуры воздуха на высоте 2 м над землей.
R - Количество осадков - Количество выпавших осадков за период времени, мм. При наведении курсора мыши на число - период времени, за который выпало указанное количество осадков.
R24 - Количество осадков - Количество выпавших осадков за 24 часа, мм.
S - Снежный покров - Высота снежного покрова, см. При наведении курсора мыши на число - состояние снежного покрова и степень покрытия местности в баллах.